Weather History for 78982 - May, 2013

Change the Weather History Date:

Thursday, May 23, 2013

  Actual Average Record
Temperature  
Mean Temperature 84 °F -  
Max Temperature 89 °F 88 °F - ()
Min Temperature 80 °F 79 °F - ()
Cooling Degree Days 20    
Growing Degree Days 34 (Base 50)    
Moisture  
Dew Point 75 °F    
Average Humidity 72    
Maximum Humidity 89    
Minimum Humidity 55    
Precipitation  
Precipitation 0.00 in - - ()
Sea Level Pressure  
Sea Level Pressure 29.88 in    
Wind  
Wind Speed 16 mph ()    
Max Wind Speed 24 mph    
Max Gust Speed 33 mph    
Visibility 8.7 miles    
Events      
T = Trace of Precipitation, MM = Missing Value Source: Averaged Metar Reports

Daily Weather History Graph

Daily Weather History Graph

Search for Another Location

Airport or City:

Trip Planner

Search our weather history database for the weather conditions in past years. The results will help you decide how hot, cold, wet, or windy it might be!

Date:

Astronomy

May. 23, 2013 Rise Set
Actual Time 6:13 AM AST 6:59 PM AST
Civil Twilight 5:51 AM AST 7:22 PM AST
Nautical Twilight 5:24 AM AST 7:49 PM AST
Astronomical Twilight 4:57 AM AST 8:16 PM AST
Moon 5:39 PM AST (5/23) 4:39 AM AST (5/23)
Length of Visible Light 13h 31m
Length of Day
12h 45m
Waxing Gibbous, 97% of the Moon is Illuminated
May 23
Waxing Gibbous
May 25
Full
May 31
Last Quarter
Jun 8
New
Jun 16
First Quarter

Hourly Weather History & Observations

Time (AST) Temp. Heat Index Dew Point Humidity Pressure Visibility Wind Dir Wind Speed Gust Speed Precip Events Conditions
2:00 AM 82 °F - 75 °F 73% 29.88 in 12 mi East 15.0 mph - -  
2:00 AM 82.4 °F 89.5 °F 75.2 °F 79% 29.86 in 6.2 mi East 15.0 mph - N/A   Partly Cloudy
3:00 AM 82.4 °F 89.5 °F 75.2 °F 79% 29.86 in 6.2 mi East 17.3 mph - N/A   Partly Cloudy
4:00 AM 82.4 °F 88.2 °F 73.4 °F 74% 29.86 in 6.2 mi East 19.6 mph - N/A   Partly Cloudy
5:00 AM 81 °F - 74 °F 74% 29.87 in 12 mi East 16.1 mph - -   Haze
5:00 AM 80.6 °F 85.4 °F 73.4 °F 79% 29.86 in 6.2 mi East 16.1 mph - N/A   Partly Cloudy
6:00 AM 80.6 °F 86.2 °F 75.2 °F 84% 29.86 in 6.2 mi East 12.7 mph - N/A   Partly Cloudy
7:00 AM 82.4 °F 89.5 °F 75.2 °F 79% 29.89 in 6.2 mi East 13.8 mph - N/A   Scattered Clouds
8:00 AM 81 °F - 77 °F 83% 29.92 in 9 mi East 11.5 mph - -   Partly Cloudy
8:00 AM 80.6 °F 87.1 °F 77.0 °F 89% 29.92 in 6.2 mi East 11.5 mph - N/A   Scattered Clouds
9:00 AM 86.0 °F 95.1 °F 75.2 °F 70% 29.92 in 6.2 mi East 20.7 mph 32.2 mph N/A   Scattered Clouds
10:00 AM 87.8 °F 97.6 °F 75.2 °F 66% 29.92 in 6.2 mi East 23.0 mph - N/A   Scattered Clouds
11:00 AM 89 °F - 75 °F 55% 29.92 in 16 mi East 23.0 mph - -   Partly Cloudy
11:00 AM 89.6 °F 99.8 °F 75.2 °F 62% 29.92 in 6.2 mi East 23.0 mph - N/A   Scattered Clouds
12:00 PM 89.6 °F 99.8 °F 75.2 °F 62% 29.89 in 6.2 mi East 21.9 mph - N/A   Scattered Clouds
1:00 PM 89.6 °F 99.8 °F 75.2 °F 62% 29.86 in 6.2 mi East 24.2 mph - N/A   Partly Cloudy
2:00 PM 89 °F - 76 °F 57% 29.87 in 16 mi East 24.2 mph - -   Scattered Clouds
2:00 PM 87.8 °F 97.6 °F 75.2 °F 66% 29.86 in 6.2 mi East 24.2 mph - N/A   Partly Cloudy
4:00 PM 87.8 °F 99.7 °F 77.0 °F 70% 29.83 in 6.2 mi East 21.9 mph 33.4 mph N/A   Partly Cloudy
5:00 PM 86 °F - 76 °F 65% 29.85 in 16 mi ENE 23.0 mph - -   Scattered Clouds
6:00 PM 84.2 °F 92.3 °F 75.2 °F 74% 29.83 in 6.2 mi ENE 20.7 mph - N/A   Partly Cloudy
11:00 PM 82 °F - 76 °F 76% 29.92 in 19 mi East 16.1 mph - -   Partly Cloudy
11:00 PM 82.4 °F 89.5 °F 75.2 °F 79% 29.92 in 6.2 mi East 16.1 mph - N/A   Scattered Clouds